sat.trackr.live / text

‹ back to catalog

INMARSAT 4-F1

NORAD 28628 · 2005-009A

PAYLOAD ACTIVE UNKNOWN

§ Identity

Operator
Country
IM
Launch date
2005-03-11
Launch site
AFETR
Launch vehicle
Mass (kg)
RCS (m²)
5.01

Purposes: comms

External: N2YO · Heavens-Above · Gunter

§ Orbital elements

Epoch: 2026-05-25T01:10:04.422720Z

Period
1,436.09 min
Inclination
5.1386°
Eccentricity
0.0002794
Mean motion
1.00272348 rev/d
Perigee alt
35,774.7 km
Apogee alt
35,798.2 km
Semi-major
42,164.6 km
B*
0.0000e+0
RAAN
42.7243°
Arg perigee
20.0994°
Mean anomaly
15.4291°
Rev number
7,744

§ Raw data

INMARSAT 4-F11 28628U 05009A   26145.04866230  .00000029  00000+0  00000+0 0  99962 28628   5.1386  42.7243 0002794  20.0994  15.4291  1.00272348 77440

JSON: /api/v1/satellites/28628 · /tle

For live sub-satellite position, see the globe view (requires WebGL).

§ Visibility from observer

Set your observer location to see the next 7 days of passes ≥ 10°. The values pass through the URL so the page stays shareable.

No JS? Fill the form by hand. The geolocation button needs JavaScript.

§ Radio — SatNOGS DB

ModeDescriptionDownlinkUplink
BPSK Outernet Asia/Pacific 1.546 GHz

1 transmitter · refreshed weekly from db.satnogs.org